Zurück zum Katalog

JILIN 1

AktivWissenschaftSSO
NORAD 40961·PAYLOAD·🇨🇳 China

Gestartet Oct 7, 2015 von Jiuquan Satellite Launch Center

Loading…

Nächste Überflüge (nächste 24 Stunden)

TLE

AktuellSource: Space-Track

Epoche: Sep 14, 2026, 13:37 UTC

1 40961U 15057D   26257.56749051  .00000513  00000-0  77274-4 0  9997
2 40961  97.6578 252.5316 0016332 337.6208  22.4289 14.78275663588818

Verfolge JILIN 1 in Echtzeit mit AllMySat

Download on the App Store